Location: PSU-Greenbush Astrophysical Observatory
(37.5140°N, 94.9880°W)
Time: 21:28:54
(UTC-06:00)

Altair - Pass Details

Date: 01 February 2020
Orbit: 1502 x 1682 km, 47.2° (Epoch: 18 February)

Event Time Altitude Azimuth Distance (km) Brightness Sun altitude
Rises 08:49:14 0° 268° (W) 4,861 9.6 14.1°
Reaches altitude 10° 08:52:29 10° 274° (W) 3,895 9.2 14.6°
Maximum altitude 09:02:14 52° 349° (N) 2,011 8.1 16.2°
Drops below altitude 10° 09:12:07 10° 64° (ENE) 3,945 10.1 17.7°
Sets 09:15:26 0° 70° (ENE) 4,927 10.6 18.2°
